• Processing (Info)

  • MPEC 2022-Q30 : 2022 QK

    The following Minor Planet Electronic Circular may be linked-to from your own Web pages, but must not otherwise be redistributed electronically.

    A form allowing access to any MPEC is at the bottom of this page.


    Read MPEC 2022-Q29 Read MPEC 2022-Q31


    M.P.E.C. 2022-Q30                               Issued 2022 August 20, 01:45 UT
    
         The Minor Planet Electronic Circulars contain information on unusual
             minor planets and routine data on comets.  They are published
        on behalf of Division F of the International Astronomical Union by the
              Minor Planet Center, Smithsonian Astrophysical Observatory,
                              Cambridge, MA 02138, U.S.A.
    
                 Prepared using the Tamkin Foundation Computer Network
    
                                  MPC@CFA.HARVARD.EDU
                URL https://www.minorplanetcenter.net/    ISSN 1523-6714
    
                                     2022 QK                                 
    
    
    Observations:
         K22Q00K* C2022 08 18.38519622 17 24.017-20 49 04.00         20.53wUEQ030F51
         K22Q00K  C2022 08 18.39685522 17 24.652-20 46 25.95         20.21wUEQ030F51
         K22Q00K  C2022 08 18.40848922 17 25.275-20 43 47.94         19.96GVEQ030F51
         K22Q00K  C2022 08 18.42007322 17 25.865-20 41 10.10         19.71GVEQ030F51
         K22Q00K  C2022 08 18.55992722 17 33.279-20 09 02.17         19.92GVEQ030F52
         K22Q00K  C2022 08 18.56073022 17 33.317-20 08 51.42         19.94GVEQ030F52
         K22Q00K KC2022 08 18.81415 22 18 16.22 -19 08 28.3          19.7 GVEQ030M21
         K22Q00K KC2022 08 18.86002 22 18 19.51 -18 58 00.6                VEQ030M21
         K22Q00K KC2022 08 19.28067 22 18 59.89 -17 22 16.3          20.3 rqEQ030H36
         K22Q00K KC2022 08 19.29835 22 19 00.87 -17 18 07.9          20.4 rqEQ030H36
         K22Q00K KC2022 08 19.31603 22 19 02.00 -17 13 58.6          20.7 rqEQ030H36
         K22Q00K ^C2022 08 19.39639722 19 15.735-16 54 24.94         20.12GVEQ030568
         K22Q00K ^C2022 08 19.39737322 19 15.785-16 54 11.14         20.09GVEQ030568
         K22Q00K ^C2022 08 19.39835122 19 15.834-16 53 57.41         20.00GVEQ030568
         K22Q00K KC2022 08 19.93216222 20 14.85 -14 47 43.1          19.6 GXEQ030958
         K22Q00K KC2022 08 19.93713622 20 15.19 -14 46 33.1          20.2 GXEQ030958
         K22Q00K KC2022 08 19.94211422 20 15.54 -14 45 21.3          19.6 GXEQ030958
         K22Q00K KC2022 08 19.94340122 20 15.39 -14 45 05.1          20.5 GXEQ030I93
         K22Q00K KC2022 08 19.94617322 20 15.57 -14 44 25.7          20.6 GXEQ030I93
         K22Q00K KC2022 08 19.94894022 20 15.73 -14 43 45.7          20.0 GXEQ030I93
    
    Observer details:
    568 Mauna Kea.  Observers R. Wainscoat, H. Januszewski, T. Burdullis.
        Measurers R. Weryk, R. Wainscoat.  3.6-m Canada-France-Hawaii Telescope +
        CCD.
    958 Observatoire de Dax.  Observers P. Dupouy, J. B. de Vanssay.  Measurer P.
        Dupouy.  0.43-m f/2.7 Reflector + CCD.
    F51 Pan-STARRS 1, Haleakala.  Observers J. Bulger, T. Lowe, A. Schultz, I.
        Smith, K. Chambers.  Measurers K. Chambers, S. Chastel, T. de Boer, J.
        Fairlamb, H. Gao, M. Huber, C.-C. Lin, E. Magnier, Y. Ramanjooloo, R.
        Wainscoat, R. Weryk.  1.8-m Ritchey-Chretien + CCD.
    F52 Pan-STARRS 2, Haleakala.  Observers J. Bulger, K. Chambers, T. Dukes, T.
        Lowe, A. Schultz, I. Smith.  Measurers S. Chastel, J. Fairlamb, M. Huber,
        Y. Ramanjooloo, R. Wainscoat, R. Weryk.  1.8-m Ritchey-Chretien + CCD.
    H36 Sandlot Observatory, Scranton.  Observer G. Hug.  0.56-m f/4.8 .56 meter
        reflector + CCD.
    I93 St Pardon de Conques.  Observer F. Losse.  0.40-m f/3.7 reflector + CCD.
    M21 Schiaparelli Southern Observatory, Hakos.  Observers A. Aletti, F.
        Bellini, L. Buzzi, G. Galli.  Measurer L. Buzzi.  0.36-m f/8.4 reflector +
        CCD.
    
    Orbital elements:
    2022 QK                                                  Earth MOID = 0.0563 AU
    Epoch 2022 Aug. 9.0 TT = JDT 2459800.5                  Veres                   
    M 350.62355              (2000.0)            P               Q                  
    n   0.49407730     Peri.    7.12022     +0.90611455     +0.41120073             
    a   1.5846722      Node   328.01187     -0.39678503     +0.74468666             
    e   0.3272223      Incl.   10.80944     -0.14669034     +0.52569548             
    P   1.99           H   25.83          G   0.15           U   7                  
    Residuals in seconds of arc
    220818 F51  0.1+  0.2-    220818 M21  0.4+  0.5+    220819 958  0.3+  0.8+
    220818 F51  0.0   0.0     220819 H36  0.6+  1.2+    220819 958  0.4+  0.1-
    220818 F51  0.0   0.1+    220819 H36  0.1-  0.1+    220819 958  0.7+  0.6+
    220818 F51  0.1-  0.3+    220819 H36  1.4+  0.8-    220819 I93  0.5-  0.1-
    220818 F52  0.0   0.2+    220819 568  0.0   0.0     220819 I93  0.5-  0.3-
    220818 F52  0.1-  0.2-    220819 568  0.0   0.0     220819 I93  0.8-  0.2+
    220818 M21  0.5+  0.7+    220819 568  0.0   0.0
    
    Ephemeris:
    2022 QK                  a,e,i = 1.58, 0.33, 11                  q = 1.0661
    Date    TT    R. A. (2000) Decl.     Delta      r    Elong.  Phase     V
    2022 07 21    21 10 03.3 -65 23 39   0.1489  1.1242   133.7    40.8    23.6
    ...
    2022 08 05    21 48 12.1 -54 25 15   0.09216 1.0882   141.5    35.5    22.3
    ...
    2022 08 13    22 06 29.2 -38 29 18   0.06840 1.0756   155.0    23.5    21.3
    ...
    2022 08 19    22 18 28.4 -18 26 03   0.05798 1.0695   171.6     8.0    20.4
    2022 08 20    22 20 18.0 -14 29 35   0.05718 1.0688   173.7     6.0    20.2
    2022 08 21    22 22 04.5 -10 27 39   0.05670 1.0682   174.1     5.6    20.2
    ...
    2022 08 27    22 31 45.7 +13 03 18   0.06033 1.0661   156.6    22.2    20.9
    ...
    2022 09 04    22 42 37.9 +34 47 40   0.07861 1.0682   137.8    39.4    22.0
    ...
    2022 09 19    22 59 24.2 +51 03 16   0.1290  1.0862   126.4    48.1    23.4
    
    M. P. C. Staff               (C) Copyright 2022 MPC           M.P.E.C. 2022-Q30
    


    Read MPEC 2022-Q29 Read MPEC 2022-Q31


    MPEC number:

    Enter an MPEC number in one of the following forms:

    • 1997-B01 (the full form)
    • J97B01 (the packed version of the full form)
    • B01 (the abbreviated form)